Regional Weather Roundup
Issued by NWS

Home | Current Version | Previous Version | Graphics & Text | Print | Product List | Glossary On
Versions: 1 2 3 4 5 6 7 8 9 10 11 12 13 14 15 16 17 18 19 20 21 22 23 24 25 26 27 28 29 30 31 32 33 34 35 36 37 38 39 40 41 42 43 44 45 46 47 48 49 50
851
ASUS43 KBIS 220110
RWRND

NORTH DAKOTA REGIONAL WEATHER ROUNDUP
NATIONAL WEATHER SERVICE BISMARCK ND
800 PM CDT THU MAY 21 2015

NOTE: "FAIR" INDICATES FEW OR NO CLOUDS BELOW 12,000 FEET WITH NO
SIGNIFICANT WEATHER AND/OR OBSTRUCTIONS TO VISIBILITY.


NDZ001>003-009>011-017-220200-
NORTHWEST NORTH DAKOTA

CITY           SKY/WX    TMP DP  RH WIND       PRES   REMARKS
WILLISTON      SUNNY     73  28  18 VRB6      30.07F
MINOT          SUNNY     69  36  29 N8        30.09S
MINOT AFB      SUNNY     72  36  27 NE7       30.09R
$$

NDZ018>021-031>035-040>046-220200-
SOUTHWEST NORTH DAKOTA

CITY           SKY/WX    TMP DP  RH WIND       PRES   REMARKS
BISMARCK       SUNNY     71  43  36 S3        30.09F
DICKINSON      SUNNY     67  32  27 E8        30.09F
GARRISON         N/A     73  28  18 CALM      30.09F
HETTINGER ARPT SUNNY     65  32  29 SE13      30.13F
$$

NDZ004>008-012>016-024-026-027-054-220200-
NORTHEAST NORTH DAKOTA

CITY           SKY/WX    TMP DP  RH WIND       PRES   REMARKS
GRAND FORKS    CLEAR     65  37  35 N9        30.10S
GRND FRKS AFB  CLEAR     65  35  32 NE7       30.11S
DEVILS LAKE    SUNNY     68  28  22 NE8       30.11S
$$

NDZ022-023-025-028>030-036>039-047>053-220200-
SOUTHEAST NORTH DAKOTA

CITY           SKY/WX    TMP DP  RH WIND       PRES   REMARKS
FARGO          CLEAR     66  40  38 NW10      30.09S
JAMESTOWN      CLEAR     66  42  41 NE10      30.10S
$$




USA.gov is the U.S. government's official web portal to all federal, state and local government web resources and services.